Lid_Strength_Index
7 9 12 10 9 9 9 10 11 9 7 9 10 10 8 8 8 7 8 7 8 8 6 6 5 5 2 2 2 2 2 1 1 1 2 2 2 1 1 0 0 0 0 0
8 11 8 7 7 9 10 11 11 9 8 8 9 10 8 7 8 7 7 7 7 8 7 6 5 5 3 3 2 2 2 2 1 1 1 1 1 1 1 0 0 0 0 1
10 9 6 7 8 10 10 11 11 11 9 8 10 11 9 7 7 7 7 6 5 6 7 7 6 5 3 3 3 3 2 1 1 1 1 1 1 1 2 1 1 1 1 0
9 7 8 9 10 9 12 8 9 10 12 16 10 17 11 9 8 7 7 7 6 6 5 7 6 6 4 3 2 2 2 2 1 1 1 2 2 3 2 1 1 1 0 1
10 9 9 10 10 8 10 8 9 10 13 14 13 17 12 9 10 8 7 6 6 5 5 5 5 4 3 3 2 2 4 3 1 1 1 2 2 2 1 1 2 2 2 2
9 6 8 8 8 8 8 10 11 11 13 19 15 15 14 12 10 8 7 6 5 5 5 5 5 4 3 3 3 2 2 2 1 1 1 2 2 2 2 2 2 2 2 2
11 10 8 8 11 9 11 14 19 20 20 20 12 15 13 10 8 7 7 6 6 6 5 6 6 6 4 4 3 3 2 3 2 2 2 2 2 2 2 2 3 3 3 2
16 16 10 8 10 11 11 14 19 23 22 20 13 18 15 8 7 6 6 6 6 6 5 6 6 6 4 4 3 3 3 3 2 2 2 1 1 2 2 3 3 2 2 2
16 15 9 8 8 9 13 16 12 17 16 19 17 13 10 8 8 7 7 6 6 6 6 6 6 6 5 4 3 3 3 3 2 2 2 2 2 3 3 2 2 2 2 3
12 17 10 9 9 9 10 9 17 16 22 23 17 15 14 12 10 8 8 8 7 6 5 5 5 6 3 3 3 3 2 3 2 2 2 2 3 2 2 3 2 2 2 3
11 14 13 11 12 13 12 15 14 14 17 21 21 17 10 11 9 9 8 7 7 6 5 5 5 6 4 3 3 3 3 3 2 2 2 2 2 3 3 3 3 2 3 3
10 13 16 14 10 9 10 12 13 18 19 16 17 17 8 8 8 8 8 6 7 7 5 7 5 5 4 4 3 3 3 3 2 2 2 2 3 3 2 2 3 3 3 3
11 14 18 16 12 11 13 12 12 13 14 18 19 17 8 8 8 7 7 7 6 6 6 6 5 4 4 4 4 3 3 3 2 2 2 3 3 3 3 3 4 3 3 4
9 13 15 18 15 12 15 13 11 13 17 17 17 15 11 10 9 7 7 7 7 6 6 6 6 6 5 4 4 3 3 2 2 3 3 3 4 3 4 4 3 4 4 5
10 15 13 13 12 12 13 13 13 15 14 17 15 15 12 11 10 9 7 7 6 6 7 6 7 6 5 4 4 6 7 5 3 3 4 4 4 4 4 4 4 5 5 6
10 14 13 15 12 12 13 14 14 14 13 14 13 14 10 9 9 8 8 7 7 6 7 6 6 6 6 6 5 5 5 5 4 4 4 4 4 4 5 5 5 5 6 7
12 13 15 17 13 13 17 16 16 15 14 15 16 13 11 12 11 10 8 7 7 6 7 6 6 5 5 4 5 4 4 3 3 5 5 5 5 6 5 5 6 7 8 9
12 13 13 17 15 21 15 13 13 15 14 13 13 12 13 13 12 11 9 7 7 7 6 6 5 5 4 3 3 3 2 2 4 5 5 6 6 6 6 7 7 8 8 9
9 12 15 18 18 15 15 14 15 16 17 13 14 14 13 11 11 11 8 7 7 6 5 5 4 4 3 3 3 3 4 4 5 5 6 6 6 6 6 7 8 8 9 9
10 10 13 16 19 21 17 14 13 12 18 14 15 15 13 10 13 11 6 6 5 5 5 4 4 3 3 3 3 4 5 5 6 6 6 6 6 7 7 7 8 9 9 9
14 15 16 16 17 15 15 13 12 19 18 15 15 13 13 10 9 7 6 6 5 5 4 4 4 5 4 4 4 5 5 6 6 6 6 7 7 7 8 8 9 8 8 10
14 16 18 16 18 19 14 14 18 17 15 15 14 13 12 8 7 7 6 6 5 5 4 4 4 5 4 5 5 6 7 6 6 6 7 7 7 8 8 8 8 8 9 10
16 12 15 15 16 13 13 15 13 15 15 14 13 13 11 7 7 6 6 6 5 5 6 5 5 6 6 4 6 6 7 6 6 7 8 8 8 8 8 8 7 8 9 10
11 10 14 15 14 14 14 13 13 14 15 12 12 11 7 7 6 6 6 6 5 5 5 5 5 6 7 6 7 6 6 7 8 8 8 9 11 12 12 12 11 10 9 10
11 12 14 15 13 15 13 14 14 15 12 12 12 10 9 8 8 7 6 6 6 6 5 6 5 6 7 7 7 7 7 7 8 11 12 12 13 14 15 15 13 13 13 12
12 14 15 17 15 16 16 14 14 13 13 13 13 10 9 9 9 8 7 6 6 6 5 6 6 7 7 7 7 7 7 9 10 11 11 12 14 14 15 15 16 14 14 13